ROMMA est une association bénévole à but non lucratif. Votre soutien est indispensable : ADHERER à ROMMA ou FAIRE un DON

Briord - (01, Ain)

Bugey (281 m)   Longitude: 05° 29' 13" E   Latitude: 45° 46' 37" N Station partenaire n°15
 

Détail journalier du     <<     >>

Température Precipitation Humidité Pression Vent Dir Rafale Dir. rafale Ensol.
Heure (°C) (mm) (%) (hPa) (km/h) (km/h) (min)
01:00 1.2094101300---0
02:00 0.9093101306ONO0
03:00 0.5094101306ONO0
04:00 0.6094101302SSE0
05:00 0.3094101300---0
06:00 0.1094101300---0
07:00 0.1094101300---0
08:00 0.6093101300---0
09:00 0.7093101302SE0
10:00 1.1092101403ONO0
11:00 2.6088101402S0
12:00 5.7085101402OSO45
13:00 7.7069101405S50
14:00 7.507110131OSO3SSE25
15:00
16:00 7.1070101302O0
17:00 5.5080101400---10
18:00 3.1088101400---0
19:00 2.0090101500---0
20:00 2.0092101500---0
21:00 2.1092101600---0
22:00 1.9091101600---0
23:00 1.7092101600---0
minuit 1.2092101700---0

Graphique du 20-01-2019

 

Serveur OMMA